^^
Saratoga-Weather Station Historical Data
Daily Summary for April 8, 2020 Units:  Metric    English   Both
Daily Weekly Monthly Yearly Custom
  High: Low: Average:
Temperature: 25.2 °C 7 °C 16.6 °C
Dew Point: 9.5 °C 5 °C 7.1 °C
Humidity: 90% 33% 57%
Wind Speed: 9.7km/h 0km/h 1.2km/h
Wind Gust: 12.9km/h - -
Wind- - SSE
Pressure: 1018.6 hPa 1012.9 hPa -
Precipitation: 0.0 mm    
Historical Graphs
 
 
Tabular Data for April 8, 2020
Time Temperature Dew Point Pressure Wind Wind Speed Wind Gust Humidity Rainfall Rate (Hourly) solar
00:01 11.4 °C 5.5 °C 1018.6 hPa Calm     67% 0.0 mm 0 W/m2
00:06 11.4 °C 5.7 °C 1018.6 hPa Calm     68% 0.0 mm 0 W/m2
00:11 11.3 °C 5.6 °C 1018.6 hPa Calm     68% 0.0 mm 0 W/m2
00:16 11.3 °C 5.6 °C 1018.6 hPa Calm     68% 0.0 mm 0 W/m2
00:21 11.3 °C 5.6 °C 1018.3 hPa Calm     68% 0.0 mm 0 W/m2
00:26 11.2 °C 5.7 °C 1018.3 hPa Calm     69% 0.0 mm 0 W/m2
00:31 11.2 °C 5.9 °C 1018.6 hPa Calm     70% 0.0 mm 0 W/m2
00:36 11.2 °C 5.9 °C 1018.6 hPa Calm     70% 0.0 mm 0 W/m2
00:41 11.3 °C 6 °C 1018.3 hPa Calm     70% 0.0 mm 0 W/m2
00:46 11.3 °C 6 °C 1018.3 hPa Calm     70% 0.0 mm 0 W/m2
00:51 11.3 °C 6 °C 1018.3 hPa Calm     70% 0.0 mm 0 W/m2
00:56 11.2 °C 5.9 °C 1018.3 hPa Calm     70% 0.0 mm 0 W/m2
01:01 11.2 °C 5.9 °C 1018.3 hPa Calm     70% 0.0 mm 0 W/m2
01:06 11.1 °C 5.8 °C 1018.3 hPa Calm     70% 0.0 mm 0 W/m2
01:11 11 °C 5.9 °C 1018.3 hPa Calm     71% 0.0 mm 0 W/m2
01:16 10.9 °C 5.8 °C 1018.3 hPa Calm     71% 0.0 mm 0 W/m2
01:21 10.7 °C 5.9 °C 1018.3 hPa Calm     72% 0.0 mm 0 W/m2
01:26 10.7 °C 5.9 °C 1018.6 hPa Calm     72% 0.0 mm 0 W/m2
01:31 10.6 °C 6 °C 1018.3 hPa Calm     73% 0.0 mm 0 W/m2
01:37 10.4 °C 5.8 °C 1018.3 hPa Calm     73% 0.0 mm 0 W/m2
01:42 10.3 °C 5.7 °C 1018.3 hPa Calm     73% 0.0 mm 0 W/m2
01:47 10.2 °C 5.8 °C 1018.3 hPa Calm     74% 0.0 mm 0 W/m2
01:52 10.1 °C 5.9 °C 1018.3 hPa Calm     75% 0.0 mm 0 W/m2
01:57 9.9 °C 5.7 °C 1018.3 hPa Calm   1.6 km/h 75% 0.0 mm 0 W/m2
02:02 9.8 °C 5.8 °C 1018.3 hPa Calm     76% 0.0 mm 0 W/m2
02:07 9.8 °C 5.8 °C 1018.3 hPa Calm   1.6 km/h 76% 0.0 mm 0 W/m2
02:12 9.7 °C 5.7 °C 1018.3 hPa Calm     76% 0.0 mm 0 W/m2
02:17 9.6 °C 5.6 °C 1018.3 hPa Calm     76% 0.0 mm 0 W/m2
02:22 9.5 °C 5.5 °C 1018.0 hPa Calm     76% 0.0 mm 0 W/m2
02:27 9.4 °C 5.6 °C 1018.0 hPa Calm     77% 0.0 mm 0 W/m2
02:32 9.3 °C 5.5 °C 1018.0 hPa Calm     77% 0.0 mm 0 W/m2
02:37 9.3 °C 5.5 °C 1018.0 hPa Calm     77% 0.0 mm 0 W/m2
02:42 9.2 °C 5.6 °C 1018.0 hPa Calm     78% 0.0 mm 0 W/m2
02:47 9.2 °C 5.6 °C 1018.0 hPa Calm     78% 0.0 mm 0 W/m2
02:52 9.1 °C 5.7 °C 1018.0 hPa Calm     79% 0.0 mm 0 W/m2
02:57 9.1 °C 5.7 °C 1018.0 hPa Calm     79% 0.0 mm 0 W/m2
03:02 9.1 °C 5.7 °C 1018.0 hPa Calm     79% 0.0 mm 0 W/m2
03:07 9 °C 5.6 °C 1018.0 hPa Calm     79% 0.0 mm 0 W/m2
03:12 9 °C 5.7 °C 1018.0 hPa Calm     80% 0.0 mm 0 W/m2
03:17 8.9 °C 5.6 °C 1018.0 hPa Calm     80% 0.0 mm 0 W/m2
03:22 8.9 °C 5.6 °C 1018.0 hPa Calm     80% 0.0 mm 0 W/m2
03:27 8.9 °C 5.6 °C 1018.0 hPa Calm     80% 0.0 mm 0 W/m2
03:32 8.8 °C 5.5 °C 1018.0 hPa Calm     80% 0.0 mm 0 W/m2
03:37 8.8 °C 5.5 °C 1018.0 hPa Calm     80% 0.0 mm 0 W/m2
03:42 8.8 °C 5.7 °C 1018.0 hPa Calm     81% 0.0 mm 0 W/m2
03:47 8.7 °C 5.6 °C 1017.6 hPa Calm     81% 0.0 mm 0 W/m2
03:53 8.7 °C 5.6 °C 1017.6 hPa Calm     81% 0.0 mm 0 W/m2
03:58 8.7 °C 5.6 °C 1017.6 hPa Calm     81% 0.0 mm 0 W/m2
04:03 8.6 °C 5.5 °C 1017.6 hPa Calm     81% 0.0 mm 0 W/m2
04:08 8.5 °C 5.4 °C 1017.6 hPa Calm     81% 0.0 mm 0 W/m2
04:13 8.4 °C 5.5 °C 1017.6 hPa Calm     82% 0.0 mm 0 W/m2
04:18 8.3 °C 5.4 °C 1017.6 hPa Calm     82% 0.0 mm 0 W/m2
04:23 8.2 °C 5.5 °C 1017.6 hPa Calm     83% 0.0 mm 0 W/m2
04:28 8.1 °C 5.4 °C 1017.6 hPa Calm     83% 0.0 mm 0 W/m2
04:33 8.1 °C 5.6 °C 1017.6 hPa Calm     84% 0.0 mm 0 W/m2
04:38 8 °C 5.3 °C 1017.6 hPa Calm     83% 0.0 mm 0 W/m2
04:43 7.9 °C 5.4 °C 1017.6 hPa Calm     84% 0.0 mm 0 W/m2
04:48 7.9 °C 5.4 °C 1017.3 hPa Calm     84% 0.0 mm 0 W/m2
04:53 7.8 °C 5.3 °C 1017.3 hPa Calm     84% 0.0 mm 0 W/m2
04:58 7.8 °C 5.3 °C 1017.6 hPa Calm     84% 0.0 mm 0 W/m2
05:03 7.7 °C 5.2 °C 1017.6 hPa Calm     84% 0.0 mm 0 W/m2
05:08 7.6 °C 5.2 °C 1017.6 hPa Calm     85% 0.0 mm 0 W/m2
05:13 7.4 °C 5 °C 1017.6 hPa Calm     85% 0.0 mm 0 W/m2
05:18 7.4 °C 5 °C 1017.6 hPa Calm     85% 0.0 mm 0 W/m2
05:23 7.3 °C 5.1 °C 1017.6 hPa Calm     86% 0.0 mm 0 W/m2
05:28 7.3 °C 5.1 °C 1017.3 hPa Calm     86% 0.0 mm 0 W/m2
05:33 7.2 °C 5.2 °C 1017.3 hPa Calm     87% 0.0 mm 0 W/m2
05:38 7.3 °C 5.3 °C 1017.3 hPa Calm     87% 0.0 mm 0 W/m2
05:43 7.3 °C 5.4 °C 1017.3 hPa Calm     88% 0.0 mm 0 W/m2
05:48 7.3 °C 5.4 °C 1017.3 hPa Calm     88% 0.0 mm 0 W/m2
05:53 7.3 °C 5.4 °C 1017.3 hPa Calm     88% 0.0 mm 0 W/m2
05:58 7.2 °C 5.3 °C 1017.3 hPa Calm     88% 0.0 mm 0 W/m2
06:03 7.2 °C 5.3 °C 1017.3 hPa Calm     88% 0.0 mm 0 W/m2
06:08 7.1 °C 5.2 °C 1017.6 hPa Calm     88% 0.0 mm 5 W/m2
06:13 7.1 °C 5.2 °C 1017.3 hPa Calm     88% 0.0 mm 7 W/m2
06:18 7.1 °C 5.4 °C 1017.3 hPa Calm     89% 0.0 mm 11 W/m2
06:23 7.1 °C 5.4 °C 1017.3 hPa Calm     89% 0.0 mm 14 W/m2
06:28 7.1 °C 5.4 °C 1017.6 hPa Calm     89% 0.0 mm 18 W/m2
06:33 7 °C 5.3 °C 1017.6 hPa Calm     89% 0.0 mm 18 W/m2
06:38 7 °C 5.5 °C 1017.6 hPa Calm     90% 0.0 mm 21 W/m2
06:43 7.1 °C 5.6 °C 1017.6 hPa Calm     90% 0.0 mm 23 W/m2
06:48 7.1 °C 5.6 °C 1017.6 hPa Calm     90% 0.0 mm 26 W/m2
06:53 7.2 °C 5.7 °C 1017.6 hPa Calm     90% 0.0 mm 26 W/m2
06:58 7.2 °C 5.7 °C 1017.6 hPa Calm     90% 0.0 mm 28 W/m2
07:03 7.3 °C 5.8 °C 1017.6 hPa Calm     90% 0.0 mm 32 W/m2
07:08 7.4 °C 5.9 °C 1017.6 hPa Calm     90% 0.0 mm 33 W/m2
07:13 7.5 °C 5.8 °C 1017.6 hPa Calm     89% 0.0 mm 37 W/m2
07:18 7.6 °C 5.9 °C 1017.6 hPa Calm     89% 0.0 mm 39 W/m2
07:23 7.7 °C 6 °C 1017.6 hPa Calm     89% 0.0 mm 39 W/m2
07:28 7.9 °C 6 °C 1017.6 hPa Calm     88% 0.0 mm 40 W/m2
07:33 8.2 °C 6.3 °C 1018.0 hPa Calm     88% 0.0 mm 40 W/m2
07:38 8.4 °C 6.4 °C 1018.0 hPa Calm     87% 0.0 mm 42 W/m2
07:43 8.7 °C 6.5 °C 1018.0 hPa Calm     86% 0.0 mm 67 W/m2
07:48 8.9 °C 6.7 °C 1018.0 hPa Calm     86% 0.0 mm 49 W/m2
07:54 9.2 °C 7 °C 1018.0 hPa Calm     86% 0.0 mm 107 W/m2
07:59 9.5 °C 7.1 °C 1018.0 hPa Calm     85% 0.0 mm 248 W/m2
08:04 9.9 °C 7.5 °C 1018.0 hPa Calm     85% 0.0 mm 257 W/m2
08:09 10.7 °C 7.8 °C 1018.0 hPa NNW 1.4 km/h 3.2 km/h 82% 0.0 mm 272 W/m2
08:14 11.4 °C 7.9 °C 1018.0 hPa Calm   1.6 km/h 79% 0.0 mm 281 W/m2
08:19 11.9 °C 7.6 °C 1018.0 hPa ENE 3.2 km/h 4.8 km/h 75% 0.0 mm 288 W/m2
08:24 12.3 °C 7.4 °C 1018.0 hPa NE 1.4 km/h 3.2 km/h 72% 0.0 mm 323 W/m2
08:29 12.6 °C 7.7 °C 1018.0 hPa ENE 3.2 km/h 3.2 km/h 72% 0.0 mm 292 W/m2
08:34 13.1 °C 7.8 °C 1018.0 hPa Calm   4.8 km/h 70% 0.0 mm 330 W/m2
08:39 13.3 °C 7.7 °C 1018.0 hPa ENE 1.4 km/h 3.2 km/h 69% 0.0 mm 325 W/m2
08:44 13.4 °C 7.8 °C 1018.0 hPa East 3.2 km/h 3.2 km/h 69% 0.0 mm 302 W/m2
08:49 13.4 °C 7.6 °C 1018.0 hPa Calm   3.2 km/h 68% 0.0 mm 287 W/m2
08:54 13.4 °C 7.8 °C 1018.0 hPa Calm     69% 0.0 mm 311 W/m2
08:59 13.6 °C 7.8 °C 1018.0 hPa Calm   1.6 km/h 68% 0.0 mm 353 W/m2
09:04 13.8 °C 8 °C 1018.0 hPa NE 1.4 km/h 3.2 km/h 68% 0.0 mm 345 W/m2
09:09 13.9 °C 7.9 °C 1018.0 hPa Calm   3.2 km/h 67% 0.0 mm 420 W/m2
09:14 14.2 °C 8.2 °C 1018.0 hPa Calm   1.6 km/h 67% 0.0 mm 432 W/m2
09:19 14.5 °C 8.4 °C 1017.6 hPa East 3.2 km/h 3.2 km/h 67% 0.0 mm 457 W/m2
09:24 14.9 °C 8.6 °C 1017.6 hPa ESE 1.4 km/h 1.6 km/h 66% 0.0 mm 454 W/m2
09:29 15.3 °C 8.5 °C 1017.6 hPa NNE 3.2 km/h 3.2 km/h 64% 0.0 mm 480 W/m2
09:34 15.5 °C 8.7 °C 1017.6 hPa East 3.2 km/h 3.2 km/h 64% 0.0 mm 475 W/m2
09:39 15.8 °C 8.5 °C 1017.6 hPa NNE 1.4 km/h 4.8 km/h 62% 0.0 mm 487 W/m2
09:44 16.1 °C 8.6 °C 1017.6 hPa ENE 3.2 km/h 4.8 km/h 61% 0.0 mm 520 W/m2
09:49 16.4 °C 8.4 °C 1017.6 hPa ENE 1.4 km/h 4.8 km/h 59% 0.0 mm 497 W/m2
09:54 16.5 °C 8.2 °C 1017.6 hPa East 3.2 km/h 4.8 km/h 58% 0.0 mm 540 W/m2
09:59 16.7 °C 8.4 °C 1017.3 hPa Calm   1.6 km/h 58% 0.0 mm 557 W/m2
10:04 16.8 °C 7.7 °C 1017.3 hPa NE 1.4 km/h 3.2 km/h 55% 0.0 mm 557 W/m2
10:09 16.9 °C 7.5 °C 1017.3 hPa Calm   3.2 km/h 54% 0.0 mm 88 W/m2
10:14 17.3 °C 8.4 °C 1017.3 hPa East 3.2 km/h 4.8 km/h 56% 0.0 mm 566 W/m2
10:19 17.6 °C 8.5 °C 1017.3 hPa ENE 3.2 km/h 4.8 km/h 55% 0.0 mm 598 W/m2
10:24 17.8 °C 8.6 °C 1017.3 hPa ESE 3.2 km/h 3.2 km/h 55% 0.0 mm 580 W/m2
10:29 18.3 °C 8.6 °C 1017.3 hPa SE 3.2 km/h 6.4 km/h 53% 0.0 mm 613 W/m2
10:34 18.6 °C 8.8 °C 1017.3 hPa SE 1.4 km/h 1.6 km/h 53% 0.0 mm 626 W/m2
10:39 18.9 °C 9.4 °C 1016.9 hPa NE 3.2 km/h 8 km/h 54% 0.0 mm 643 W/m2
10:44 18.9 °C 9.1 °C 1016.9 hPa NE 1.4 km/h 3.2 km/h 53% 0.0 mm 654 W/m2
10:49 19.1 °C 9 °C 1016.9 hPa Calm   3.2 km/h 52% 0.0 mm 657 W/m2
10:54 19.3 °C 9.2 °C 1016.9 hPa NNE 3.2 km/h 4.8 km/h 52% 0.0 mm 671 W/m2
10:59 19.3 °C 9.2 °C 1016.9 hPa NE 1.4 km/h 3.2 km/h 52% 0.0 mm 679 W/m2
11:04 19.5 °C 7.9 °C 1016.9 hPa NE 4.7 km/h 8 km/h 47% 0.0 mm 666 W/m2
11:09 19.4 °C 8.4 °C 1016.9 hPa SSW 3.2 km/h 3.2 km/h 49% 0.0 mm 682 W/m2
11:14 19.8 °C 9.1 °C 1016.9 hPa Calm   8 km/h 50% 0.0 mm 714 W/m2
11:19 20.1 °C 8.1 °C 1016.9 hPa East 6.4 km/h 6.4 km/h 46% 0.0 mm 701 W/m2
11:24 20.2 °C 8.5 °C 1016.9 hPa NE 6.4 km/h 6.4 km/h 47% 0.0 mm 714 W/m2
11:29 20.4 °C 8.4 °C 1016.9 hPa SE 3.2 km/h 6.4 km/h 46% 0.0 mm 657 W/m2
11:34 20.5 °C 8.2 °C 1016.9 hPa East 1.4 km/h 6.4 km/h 45% 0.0 mm 754 W/m2
11:39 20.7 °C 8.3 °C 1016.9 hPa East 3.2 km/h 4.8 km/h 45% 0.0 mm 673 W/m2
11:44 20.9 °C 8.2 °C 1016.9 hPa Calm   3.2 km/h 44% 0.0 mm 728 W/m2
11:49 20.9 °C 7.5 °C 1016.6 hPa West 4.7 km/h 4.8 km/h 42% 0.0 mm 800 W/m2
11:54 20.9 °C 7.5 °C 1016.6 hPa Calm   4.8 km/h 42% 0.0 mm 605 W/m2
11:59 21.1 °C 8 °C 1016.6 hPa NE 3.2 km/h 8 km/h 43% 0.0 mm 281 W/m2
12:04 20.9 °C 7.9 °C 1016.6 hPa Calm   1.6 km/h 43% 0.0 mm 450 W/m2
12:09 20.9 °C 7.2 °C 1016.6 hPa NE 1.4 km/h 4.8 km/h 41% 0.0 mm 752 W/m2
12:14 20.9 °C 7.9 °C 1016.6 hPa East 3.2 km/h 6.4 km/h 43% 0.0 mm 914 W/m2
12:19 21.2 °C 8.5 °C 1016.6 hPa ESE 3.2 km/h 6.4 km/h 44% 0.0 mm 773 W/m2
12:24 21.5 °C 7.7 °C 1016.3 hPa NNW 1.4 km/h 4.8 km/h 41% 0.0 mm 559 W/m2
12:29 21.8 °C 7.6 °C 1016.3 hPa SE 3.2 km/h 3.2 km/h 40% 0.0 mm 367 W/m2
12:34 21.7 °C 7.9 °C 1016.3 hPa East 3.2 km/h 4.8 km/h 41% 0.0 mm 592 W/m2
12:39 21.6 °C 7.1 °C 1016.3 hPa NW 1.4 km/h 3.2 km/h 39% 0.0 mm 364 W/m2
12:44 21.7 °C 6.8 °C 1016.3 hPa NE 1.4 km/h 3.2 km/h 38% 0.0 mm 431 W/m2
12:49 21.8 °C 6.5 °C 1016.3 hPa East 3.2 km/h 6.4 km/h 37% 0.0 mm 615 W/m2
12:54 21.9 °C 6.5 °C 1016.3 hPa NNW 1.4 km/h 4.8 km/h 37% 0.0 mm 675 W/m2
12:59 22.1 °C 5.5 °C 1016.3 hPa ENE 3.2 km/h 4.8 km/h 34% 0.0 mm 621 W/m2
13:04 22.1 °C 6.3 °C 1016.3 hPa NW 6.4 km/h 6.4 km/h 36% 0.0 mm 691 W/m2
13:09 22.2 °C 6 °C 1016.3 hPa North 1.4 km/h 4.8 km/h 35% 0.0 mm 737 W/m2
13:14 22.3 °C 6.9 °C 1016.3 hPa Calm   4.8 km/h 37% 0.0 mm 710 W/m2
13:19 22.4 °C 7 °C 1015.9 hPa ESE 1.4 km/h 3.2 km/h 37% 0.0 mm 758 W/m2
13:24 22.6 °C 7.6 °C 1015.9 hPa ENE 4.7 km/h 11.3 km/h 38% 0.0 mm 700 W/m2
13:29 22.7 °C 6.9 °C 1015.9 hPa ESE 4.7 km/h 8 km/h 36% 0.0 mm 729 W/m2
13:34 22.8 °C 6.5 °C 1015.9 hPa WNW 3.2 km/h 9.7 km/h 35% 0.0 mm 793 W/m2
13:39 22.8 °C 6.9 °C 1015.9 hPa NNW 1.4 km/h 4.8 km/h 36% 0.0 mm 868 W/m2
13:44 22.9 °C 7.8 °C 1015.9 hPa NNW 3.2 km/h 4.8 km/h 38% 0.0 mm 722 W/m2
13:49 23 °C 7.5 °C 1015.6 hPa ENE 1.4 km/h 4.8 km/h 37% 0.0 mm 831 W/m2
13:54 23.1 °C 7.6 °C 1015.6 hPa Calm   4.8 km/h 37% 0.0 mm 812 W/m2
13:59 23.4 °C 7.5 °C 1015.6 hPa NNW 1.4 km/h 4.8 km/h 36% 0.0 mm 830 W/m2
14:05 23.6 °C 7.2 °C 1015.6 hPa East 6.4 km/h 9.7 km/h 35% 0.0 mm 911 W/m2
14:10 23.7 °C 6.9 °C 1015.6 hPa ENE 1.4 km/h 6.4 km/h 34% 0.0 mm 928 W/m2
14:15 23.6 °C 7.2 °C 1015.6 hPa NE 3.2 km/h 6.4 km/h 35% 0.0 mm 846 W/m2
14:20 23.8 °C 8.2 °C 1015.6 hPa ESE 4.7 km/h 6.4 km/h 37% 0.0 mm 800 W/m2
14:25 23.8 °C 7.8 °C 1015.2 hPa ESE 1.4 km/h 8 km/h 36% 0.0 mm 733 W/m2
14:30 23.8 °C 9 °C 1015.2 hPa ESE 9.7 km/h 11.3 km/h 39% 0.0 mm 858 W/m2
14:35 23.8 °C 6.6 °C 1015.2 hPa ENE 6.4 km/h 6.4 km/h 33% 0.0 mm 494 W/m2
14:40 23.6 °C 7.2 °C 1015.2 hPa NE 1.4 km/h 4.8 km/h 35% 0.0 mm 902 W/m2
14:45 23.5 °C 7.2 °C 1015.2 hPa Calm   4.8 km/h 35% 0.0 mm 715 W/m2
14:50 23.6 °C 6.4 °C 1015.2 hPa NNW 3.2 km/h 3.2 km/h 33% 0.0 mm 856 W/m2
14:55 23.5 °C 6.7 °C 1015.2 hPa NW 4.7 km/h 8 km/h 34% 0.0 mm 747 W/m2
15:00 23.6 °C 7.7 °C 1015.2 hPa Calm   3.2 km/h 36% 0.0 mm 735 W/m2
15:05 23.8 °C 9 °C 1014.9 hPa East 1.4 km/h 6.4 km/h 39% 0.0 mm 768 W/m2
15:10 24.1 °C 8.1 °C 1014.9 hPa ESE 1.4 km/h 4.8 km/h 36% 0.0 mm 715 W/m2
15:15 24 °C 8.4 °C 1014.9 hPa East 3.2 km/h 6.4 km/h 37% 0.0 mm 432 W/m2
15:20 23.8 °C 7.8 °C 1014.9 hPa ENE 3.2 km/h 3.2 km/h 36% 0.0 mm 501 W/m2
15:25 23.6 °C 7.2 °C 1014.9 hPa East 1.4 km/h 6.4 km/h 35% 0.0 mm 531 W/m2
15:30 23.6 °C 7.7 °C 1014.9 hPa ESE 4.7 km/h 12.9 km/h 36% 0.0 mm 513 W/m2
15:35 23.7 °C 8.9 °C 1014.6 hPa East 1.4 km/h 4.8 km/h 39% 0.0 mm 524 W/m2
15:40 23.9 °C 7.5 °C 1014.6 hPa NE 3.2 km/h 12.9 km/h 35% 0.0 mm 663 W/m2
15:45 24.2 °C 7.3 °C 1014.6 hPa ENE 4.7 km/h 9.7 km/h 34% 0.0 mm 826 W/m2
15:50 24.2 °C 7.3 °C 1014.6 hPa NW 1.4 km/h 3.2 km/h 34% 0.0 mm 559 W/m2
15:55 24.2 °C 7.8 °C 1014.6 hPa SW 1.4 km/h 4.8 km/h 35% 0.0 mm 612 W/m2
16:00 24.1 °C 8.5 °C 1014.6 hPa SSE 1.4 km/h 6.4 km/h 37% 0.0 mm 519 W/m2
16:05 24.1 °C 8.1 °C 1014.6 hPa Calm   6.4 km/h 36% 0.0 mm 636 W/m2
16:10 24.3 °C 7.9 °C 1014.6 hPa ENE 3.2 km/h 9.7 km/h 35% 0.0 mm 663 W/m2
16:15 24.4 °C 7.9 °C 1014.6 hPa WSW 4.7 km/h 4.8 km/h 35% 0.0 mm 689 W/m2
16:20 24.4 °C 8.4 °C 1014.6 hPa Calm   3.2 km/h 36% 0.0 mm 297 W/m2
16:25 24.5 °C 8.4 °C 1014.6 hPa Calm   3.2 km/h 36% 0.0 mm 835 W/m2
16:30 24.8 °C 8.7 °C 1014.2 hPa Calm   3.2 km/h 36% 0.0 mm 357 W/m2
16:35 24.7 °C 9 °C 1014.2 hPa WNW 1.4 km/h 4.8 km/h 37% 0.0 mm 357 W/m2
16:40 24.6 °C 7.7 °C 1014.2 hPa NW 1.4 km/h 3.2 km/h 34% 0.0 mm 309 W/m2
16:46 24.6 °C 8.5 °C 1014.2 hPa West 1.4 km/h 4.8 km/h 36% 0.0 mm 705 W/m2
16:51 24.7 °C 8.6 °C 1014.2 hPa SSW 1.4 km/h 3.2 km/h 36% 0.0 mm 446 W/m2
16:56 24.8 °C 9.1 °C 1014.2 hPa West 1.4 km/h 3.2 km/h 37% 0.0 mm 352 W/m2
17:01 24.7 °C 8.6 °C 1014.2 hPa Calm   1.6 km/h 36% 0.0 mm 380 W/m2
17:06 24.8 °C 9.1 °C 1014.2 hPa ESE 3.2 km/h 4.8 km/h 37% 0.0 mm 257 W/m2
17:11 24.6 °C 7.7 °C 1013.9 hPa Calm   1.6 km/h 34% 0.0 mm 297 W/m2
17:16 24.6 °C 8.1 °C 1013.9 hPa East 3.2 km/h 3.2 km/h 35% 0.0 mm 673 W/m2
17:21 24.7 °C 9 °C 1013.9 hPa Calm   3.2 km/h 37% 0.0 mm 545 W/m2
17:26 24.8 °C 8.7 °C 1013.9 hPa ENE 3.2 km/h 6.4 km/h 36% 0.0 mm 513 W/m2
17:31 24.9 °C 8 °C 1013.9 hPa Calm   3.2 km/h 34% 0.0 mm 473 W/m2
17:36 25.1 °C 8.1 °C 1013.9 hPa Calm   6.4 km/h 34% 0.0 mm 448 W/m2
17:41 25.1 °C 8.6 °C 1013.5 hPa East 1.4 km/h 6.4 km/h 35% 0.0 mm 418 W/m2
17:46 25 °C 8.5 °C 1013.5 hPa Calm   4.8 km/h 35% 0.0 mm 404 W/m2
17:51 25.2 °C 9.5 °C 1013.5 hPa East 1.4 km/h 1.6 km/h 37% 0.0 mm 279 W/m2
17:56 24.9 °C 8 °C 1013.5 hPa SSE 1.4 km/h 4.8 km/h 34% 0.0 mm 202 W/m2
18:01 24.7 °C 7.8 °C 1013.5 hPa NNE 3.2 km/h 6.4 km/h 34% 0.0 mm 204 W/m2
18:06 24.4 °C 7.5 °C 1013.5 hPa NE 1.4 km/h 6.4 km/h 34% 0.0 mm 178 W/m2
18:11 24.2 °C 7.8 °C 1013.5 hPa NNW 3.2 km/h 4.8 km/h 35% 0.0 mm 165 W/m2
18:16 24.1 °C 7.7 °C 1013.5 hPa NNW 1.4 km/h 6.4 km/h 35% 0.0 mm 144 W/m2
18:21 23.8 °C 7.4 °C 1013.5 hPa West 1.4 km/h 4.8 km/h 35% 0.0 mm 151 W/m2
18:26 23.6 °C 7.7 °C 1013.2 hPa East 3.2 km/h 4.8 km/h 36% 0.0 mm 151 W/m2
18:31 23.6 °C 8.1 °C 1013.2 hPa WNW 3.2 km/h 3.2 km/h 37% 0.0 mm 341 W/m2
18:36 23.8 °C 8.2 °C 1013.2 hPa NNW 3.2 km/h 4.8 km/h 37% 0.0 mm 199 W/m2
18:42 23.9 °C 7.9 °C 1013.2 hPa Calm   9.7 km/h 36% 0.0 mm 264 W/m2
18:47 24.1 °C 7.7 °C 1013.2 hPa North 1.4 km/h 3.2 km/h 35% 0.0 mm 341 W/m2
18:52 24.2 °C 8.6 °C 1013.2 hPa ENE 4.7 km/h 9.7 km/h 37% 0.0 mm 151 W/m2
18:57 24.1 °C 8.1 °C 1013.2 hPa ENE 1.4 km/h 3.2 km/h 36% 0.0 mm 146 W/m2
19:02 24 °C 7.6 °C 1013.2 hPa ENE 3.2 km/h 6.4 km/h 35% 0.0 mm 90 W/m2
19:07 23.8 °C 7.8 °C 1013.2 hPa NW 4.7 km/h 4.8 km/h 36% 0.0 mm 100 W/m2
19:12 23.6 °C 7.7 °C 1013.2 hPa Calm   6.4 km/h 36% 0.0 mm 207 W/m2
19:17 23.4 °C 7.5 °C 1013.2 hPa North 1.4 km/h 4.8 km/h 36% 0.0 mm 109 W/m2
19:22 23.3 °C 7.8 °C 1013.2 hPa Calm   4.8 km/h 37% 0.0 mm 121 W/m2
19:27 23.2 °C 7.3 °C 1013.2 hPa WNW 4.7 km/h 8 km/h 36% 0.0 mm 100 W/m2
19:32 23.2 °C 7.7 °C 1013.2 hPa Calm   1.6 km/h 37% 0.0 mm 102 W/m2
19:37 23 °C 7.9 °C 1013.2 hPa NW 3.2 km/h 8 km/h 38% 0.0 mm 181 W/m2
19:42 23.1 °C 8.4 °C 1013.2 hPa Calm   3.2 km/h 39% 0.0 mm 109 W/m2
19:47 23.1 °C 8 °C 1013.2 hPa ENE 1.4 km/h 6.4 km/h 38% 0.0 mm 88 W/m2
19:52 22.9 °C 7.8 °C 1013.2 hPa ESE 3.2 km/h 3.2 km/h 38% 0.0 mm 72 W/m2
19:57 22.7 °C 7.6 °C 1013.2 hPa North 3.2 km/h 6.4 km/h 38% 0.0 mm 69 W/m2
20:02 22.6 °C 7.6 °C 1013.2 hPa Calm   1.6 km/h 38% 0.0 mm 65 W/m2
20:07 22.4 °C 7 °C 1012.9 hPa Calm   6.4 km/h 37% 0.0 mm 62 W/m2
20:12 22.3 °C 7.3 °C 1012.9 hPa Calm   1.6 km/h 38% 0.0 mm 67 W/m2
20:17 22.2 °C 7.6 °C 1012.9 hPa North 3.2 km/h 3.2 km/h 39% 0.0 mm 47 W/m2
20:22 22.1 °C 7.1 °C 1012.9 hPa NNE 1.4 km/h 3.2 km/h 38% 0.0 mm 28 W/m2
20:27 21.9 °C 6.9 °C 1012.9 hPa Calm   4.8 km/h 38% 0.0 mm 21 W/m2
20:32 21.7 °C 7.1 °C 1012.9 hPa East 1.4 km/h 1.6 km/h 39% 0.0 mm 14 W/m2
20:37 21.6 °C 7.8 °C 1012.9 hPa West 3.2 km/h 3.2 km/h 41% 0.0 mm 11 W/m2
20:42 21.2 °C 8.1 °C 1012.9 hPa Calm   1.6 km/h 43% 0.0 mm 11 W/m2
20:47 20.9 °C 8.2 °C 1012.9 hPa NW 1.4 km/h 1.6 km/h 44% 0.0 mm 9 W/m2
20:52 20.4 °C 8.7 °C 1013.2 hPa WNW 1.4 km/h 1.6 km/h 47% 0.0 mm 7 W/m2
20:57 20 °C 8.3 °C 1012.9 hPa WNW 1.4 km/h 1.6 km/h 47% 0.0 mm 5 W/m2
21:02 19.6 °C 8 °C 1012.9 hPa WNW 1.4 km/h 1.6 km/h 47% 0.0 mm 0 W/m2
21:07 19.2 °C 7.9 °C 1012.9 hPa WNW 1.4 km/h 1.6 km/h 48% 0.0 mm 0 W/m2
21:12 18.9 °C 7.6 °C 1012.9 hPa Calm   3.2 km/h 48% 0.0 mm 0 W/m2
21:17 18.7 °C 7.5 °C 1012.9 hPa Calm   3.2 km/h 48% 0.0 mm 0 W/m2
21:22 18.5 °C 7 °C 1012.9 hPa WNW 1.4 km/h 3.2 km/h 47% 0.0 mm 0 W/m2
21:27 18.3 °C 7.4 °C 1012.9 hPa Calm   1.6 km/h 49% 0.0 mm 0 W/m2
21:32 18.2 °C 7.3 °C 1012.9 hPa Calm   3.2 km/h 49% 0.0 mm 0 W/m2
21:37 18.1 °C 7.5 °C 1013.2 hPa Calm     50% 0.0 mm 0 W/m2
21:42 17.9 °C 7.3 °C 1013.2 hPa Calm   1.6 km/h 50% 0.0 mm 0 W/m2
21:47 17.8 °C 7.5 °C 1013.2 hPa Calm   1.6 km/h 51% 0.0 mm 0 W/m2
21:52 17.6 °C 7.6 °C 1013.2 hPa WNW 1.4 km/h 3.2 km/h 52% 0.0 mm 0 W/m2
21:57 17.5 °C 7.2 °C 1013.2 hPa Calm     51% 0.0 mm 0 W/m2
22:02 17.3 °C 7.1 °C 1013.2 hPa Calm     51% 0.0 mm 0 W/m2
22:07 17.3 °C 7.1 °C 1013.2 hPa Calm   1.6 km/h 51% 0.0 mm 0 W/m2
22:12 17.2 °C 7.3 °C 1013.2 hPa Calm     52% 0.0 mm 0 W/m2
22:17 17 °C 7.3 °C 1013.2 hPa Calm   1.6 km/h 53% 0.0 mm 0 W/m2
22:22 16.9 °C 7.3 °C 1013.2 hPa West 1.4 km/h 3.2 km/h 53% 0.0 mm 0 W/m2
22:27 16.9 °C 6.4 °C 1013.2 hPa West 1.4 km/h 4.8 km/h 50% 0.0 mm 0 W/m2
22:32 17 °C 7.1 °C 1013.2 hPa Calm     52% 0.0 mm 0 W/m2
22:37 17 °C 7.1 °C 1013.2 hPa Calm   3.2 km/h 52% 0.0 mm 0 W/m2
22:42 16.9 °C 7.3 °C 1013.2 hPa Calm     53% 0.0 mm 0 W/m2
22:47 16.8 °C 7.2 °C 1012.9 hPa Calm   1.6 km/h 53% 0.0 mm 0 W/m2
22:52 16.7 °C 7.3 °C 1012.9 hPa West 1.4 km/h 1.6 km/h 54% 0.0 mm 0 W/m2
22:57 16.7 °C 7.6 °C 1012.9 hPa West 1.4 km/h 1.6 km/h 55% 0.0 mm 0 W/m2
23:03 16.7 °C 7.3 °C 1012.9 hPa Calm   1.6 km/h 54% 0.0 mm 0 W/m2
23:08 16.6 °C 7.8 °C 1012.9 hPa West 1.4 km/h 1.6 km/h 56% 0.0 mm 0 W/m2
23:13 16.6 °C 7.8 °C 1012.9 hPa Calm     56% 0.0 mm 0 W/m2
23:18 16.5 °C 7.4 °C 1012.9 hPa West 1.4 km/h 3.2 km/h 55% 0.0 mm 0 W/m2
23:23 16.4 °C 7.6 °C 1012.9 hPa Calm     56% 0.0 mm 0 W/m2
23:28 16.3 °C 7.5 °C 1012.9 hPa Calm     56% 0.0 mm 0 W/m2
23:33 16.3 °C 7.8 °C 1012.9 hPa Calm     57% 0.0 mm 0 W/m2
23:38 16.2 °C 7.7 °C 1012.9 hPa Calm     57% 0.0 mm 0 W/m2
23:43 16.2 °C 7.7 °C 1012.9 hPa Calm     57% 0.0 mm 0 W/m2
23:48 16.1 °C 8.1 °C 1012.9 hPa Calm     59% 0.0 mm 0 W/m2
23:53 16.1 °C 8.1 °C 1012.9 hPa Calm     59% 0.0 mm 0 W/m2
23:58 16.1 °C 7.6 °C 1012.9 hPa Calm     57% 0.0 mm 0 W/m2
Juneau County Weather
Compliments of Weather Underground - 2 mb